"Pseudo-MPEC" for C0AJMH2

Created 2019 Mar 20 13:18:20 UT using Find_Orb

Click here for an explanation of pseudo-MPECs

 
 Astrometry: 
     C0AJMH2  C2019 03 15.28231 11 57 04.68 -21 35 19.2    ~3FAI 19.8 GVNEOCPG96
     C0AJMH2  C2019 03 15.28797 11 57 04.19 -21 34 59.8    ~3FAI 20.2 GVNEOCPG96
     C0AJMH2  C2019 03 15.29364 11 57 03.72 -21 34 39.8    ~3FAI 20.9 GVNEOCPG96
     C0AJMH2  C2019 03 15.29929 11 57 03.26 -21 34 19.7    ~3FAI 20.0 GVNEOCPG96
     C0AJMH2  C2019 03 15.40148 11 56 54.82 -21 28 27.0    ~3FAX 21.2 GVNEOCPG96
     C0AJMH2  C2019 03 15.40323 11 56 54.73 -21 28 20.9    ~3FAX 21.1 GVNEOCPG96
     C0AJMH2  C2019 03 15.40689 11 56 54.42 -21 28 08.8    ~3FAX 21.1 GVNEOCPG96
     C0AJMH2 KC2019 03 16D72xrtxjC\\Z'$@Bw^QBO#xobE$AstrometrybJCa094*lX'N:;UH21
     C0AJMH2 KC2019 03 16lJredacted;`EsI%r'hC%)95BMs4+Tyorq+#AL`4PG3IJ8BQZ?V=H21
     C0AJMH2 KC2019 03 17DLECvqn't6-[$7\ka,)]]dVn'h9A'2JK8oHhclickfJ:,1u0IW!dH21
     C0AJMH2 KC2019 03 17I^ybZZN^+ASS/sIYgVkc@:tvX8[Ym8jviXVIa:.(G;7tdKbtp%o0H21
     C0AJMH2 KC2019 03 178rk.n4A%](sEdu`!I$eSvjH`xm(CM)\EheretDm.erEGFj1u*gDcH21
     C0AJMH2  C2019 03 17.25128 11 54 43.75 -19 44 21.5    ~3H6X 20.8 GVNEOCPI52
     C0AJMH2  C2019 03 17.25253 11 54 43.60 -19 44 17.8    ~3H6X 19.7 GVNEOCPI52
     C0AJMH2  C2019 03 17.25378 11 54 43.47 -19 44 13.9    ~3H6X 19.3 GVNEOCPI52
     C0AJMH2  C2019 03 17.25502 11 54 43.39 -19 44 12.0    ~3H6X 19.4 GVNEOCPI52
     C0AJMH2 KC2019 03 18*R13v^p2]EVPSvfor#SCIw/x(PBkw,aAa%m6miN=U1b2;pbI_AFnH21
     C0AJMH2 KC2019 03 18Hhq/mQW]DebVPJBlt*0Ci,D8K6g.f6v^yjiV'4WmPgCT/5Omr\,pH21
     C0AJMH2 KC2019 03 18+5[C4KgE-explanation!+iw_Rg4Ega[M1d^b)]Ghr)fa.S,;.boH21
     C0AJMH2  C2019 03 18.35594211 53 28.67 -18 44 21.6    ~3I9X 20.0 GVNEOCPH01
     C0AJMH2  C2019 03 18.35985711 53 28.39 -18 44 08.9    ~3I9X 20.7 GVNEOCPH01
     C0AJMH2  C2019 03 18.36986511 53 27.67 -18 43 36.4    ~3I9X 21.0 GVNEOCPH01
     C0AJMH2  C2019 03 18.38089911 53 26.86 -18 43 01.1    ~3I9X 20.3 GVNEOCPH01

Station data:
(G96) Mt. Lemmon Survey  (N32.442754 W110.788720)  US/Arizona.  Observers B.
   M. Africano, E. J. Christensen, G. A. Farneth, D. C. Fuls, A. R. Gibbs, A.
   D. Grauer, H. Groeller, J. A. Johnson, R. A. Kowalski, S. M. Larson, G. J.
   Leonard, R. L. Seaman, F. C. Shelly. 1.5-m reflector + 10K CCD.
(H01) Magdalena Ridge Observatory, Socorro  (N33.984833 W107.189333)  US/New
   Mexico.  Observers W. H. Ryan, E. V. Ryan. Measurer W. H. Ryan. 2.4-m
   f/8.9 reflector + CCD.
(H21) Astronomical Research Observatory, Westfield  (N39.483057 W87.968270)
   US/Illinois. 0.76-m f/3.0 astrograph + CCD.
(I52) Steward Observatory, Mt. Lemmon Station  (N32.442547 W110.788920)
   US/Arizona.  Observers B. M. Africano, E. J. Christensen, G. A. Farneth,
   D. C. Fuls, A. R. Gibbs, A. D. Grauer, H. Groeller, J. A. Johnson, R. A.
   Kowalski, S. M. Larson, G. J. Leonard, R. L. Seaman, F. C. Shelly. 1.0-m
   reflector + CCD.

Orbital elements:  C0AJMH2
   Perihelion 2018 Dec 27.414735 +/- 0.079 TT =  9:57:13 (JD 2458479.914735)
Epoch 2019 Mar 18.0 TT = JDT 2458560.5   Earth MOID: 0.0315   Ma: 0.0984
M  19.25509484 +/- 1.4              (J2000 ecliptic)          AutoNEOCP
n   0.23894064 +/- 0.0176           Peri.  246.55246 +/- 0.25
a   2.57203001 +/- 0.126            Node   198.76965 +/- 0.32
e   0.6891568 +/- 0.0164            Incl.   16.33440 +/- 0.59
P   4.12                   H 21.0   G  0.15   U 10.0  
q 0.79949803 +/- 0.00325    Q 4.34456198 +/- 0.271
From 23 observations 2019 Mar. 15-18; mean residual 0".42
Residuals in arcseconds: 
190315 G96  .37+  .33-    190316 H21  .12-  .45+    190318 H21  .05-  .07-    
190315 G96  .04+  .43-    190317 H21  .08+  .10+    190318 H21  .09-  .06-    
190315 G96  .00   .03+    190317 H21  .07+  .26-    190318 H21  .02-  .41-    
190315 G96  .09+  .66+    190317 H21  .07-  .05-    190318 H01  .07+  .12+    
190315 G96  .43-  .09+    190317 I52  .73+  .78+    190318 H01  .13+  .19+    
190315 G96  .30+  .13+    190317 I52  .05-  .37+    190318 H01  .19+  .39+    
190315 G96  .13+  .46-    190317 I52  .55-  .16+    190318 H01  .01-  .07+    
190316 H21  .34-  .42+    190317 I52  .35-  2.0-    

Ephemerides (geocentric):
Date (UTC) HH   RA              Dec         delta   r     elong  mag " sig PA
---- -- -- --  -------------   -----------  ------ ------ -----  --- ---- ---
2019 03 20 13  11 51 12.740   -16 50 12.66  .45556 1.4373 162.8 20.8 .739  87
2019 03 20 14  11 51 10.275   -16 48 06.20  .45590 1.4378 162.9 20.8 .758  88
2019 03 20 15  11 51 07.815   -16 45 59.88  .45624 1.4382 162.9 20.8 .778  88
2019 03 20 16  11 51 05.360   -16 43 53.70  .45659 1.4386 163.0 20.8 .798  89
2019 03 20 17  11 51 02.910   -16 41 47.67  .45693 1.4390 163.0 20.8 .818  90
2019 03 20 18  11 51 00.465   -16 39 41.78  .45727 1.4395 163.1 20.8 .839  91
2019 03 20 19  11 50 58.025   -16 37 36.04  .45762 1.4399 163.1 20.8 .860  91
2019 03 20 20  11 50 55.590   -16 35 30.43  .45797 1.4403 163.2 20.8 .881  92
2019 03 20 21  11 50 53.159   -16 33 24.98  .45831 1.4407 163.2 20.8 .903  93
2019 03 20 22  11 50 50.734   -16 31 19.66  .45866 1.4412 163.3 20.8 .926  93
2019 03 20 23  11 50 48.314   -16 29 14.49  .45900 1.4416 163.3 20.8 .948  94
2019 03 21 00  11 50 45.898   -16 27 09.46  .45935 1.4420 163.3 20.8 .971  94
2019 03 21 01  11 50 43.487   -16 25 04.58  .45970 1.4424 163.4 20.8 0.99  95
2019 03 21 02  11 50 41.082   -16 22 59.83  .46005 1.4428 163.4 20.8 1.02  96
2019 03 21 03  11 50 38.681   -16 20 55.24  .46040 1.4433 163.5 20.8 1.04  96
2019 03 21 04  11 50 36.285   -16 18 50.78  .46075 1.4437 163.5 20.8 1.07  97
2019 03 21 05  11 50 33.894   -16 16 46.47  .46109 1.4441 163.6 20.8 1.09  97
2019 03 21 06  11 50 31.508   -16 14 42.31  .46144 1.4445 163.6 20.8 1.12  98
2019 03 21 07  11 50 29.127   -16 12 38.28  .46180 1.4450 163.7 20.8 1.14  98
2019 03 21 08  11 50 26.750   -16 10 34.40  .46215 1.4454 163.7 20.8 1.17  98
2019 03 21 09  11 50 24.379   -16 08 30.67  .46250 1.4458 163.7 20.8 1.20  99
2019 03 21 10  11 50 22.012   -16 06 27.08  .46285 1.4462 163.8 20.8 1.22  99
2019 03 21 11  11 50 19.651   -16 04 23.63  .46320 1.4467 163.8 20.8 1.25 100
2019 03 21 12  11 50 17.294   -16 02 20.33  .46355 1.4471 163.9 20.8 1.28 100
2019 03 21 13  11 50 14.942   -16 00 17.17  .46391 1.4475 163.9 20.8 1.30 100
2019 03 21 14  11 50 12.595   -15 58 14.15  .46426 1.4479 163.9 20.8 1.33 101
2019 03 21 15  11 50 10.253   -15 56 11.28  .46461 1.4483 164.0 20.8 1.36 101
2019 03 21 16  11 50 07.916   -15 54 08.55  .46497 1.4488 164.0 20.8 1.39 102
2019 03 21 17  11 50 05.584   -15 52 05.96  .46532 1.4492 164.1 20.8 1.42 102
2019 03 21 18  11 50 03.256   -15 50 03.52  .46568 1.4496 164.1 20.8 1.45 102
2019 03 21 19  11 50 00.934   -15 48 01.23  .46603 1.4500 164.2 20.8 1.48 103
2019 03 21 20  11 49 58.616   -15 45 59.07  .46639 1.4505 164.2 20.8 1.51 103
2019 03 21 21  11 49 56.303   -15 43 57.07  .46675 1.4509 164.2 20.8 1.54 103
2019 03 21 22  11 49 53.995   -15 41 55.20  .46710 1.4513 164.3 20.8 1.57 103
2019 03 21 23  11 49 51.692   -15 39 53.48  .46746 1.4517 164.3 20.8 1.60 104
2019 03 22 00  11 49 49.394   -15 37 51.90  .46782 1.4521 164.4 20.8 1.63 104
2019 03 22 01  11 49 47.100   -15 35 50.47  .46817 1.4526 164.4 20.8 1.66 104
2019 03 22 02  11 49 44.812   -15 33 49.18  .46853 1.4530 164.4 20.8 1.70 105
2019 03 22 03  11 49 42.528   -15 31 48.04  .46889 1.4534 164.5 20.8 1.73 105
2019 03 22 04  11 49 40.249   -15 29 47.04  .46925 1.4538 164.5 20.8 1.76 105
2019 03 22 05  11 49 37.975   -15 27 46.18  .46961 1.4543 164.5 20.8 1.80 105
2019 03 22 06  11 49 35.706   -15 25 45.47  .46997 1.4547 164.6 20.8 1.83 106
2019 03 22 07  11 49 33.441   -15 23 44.90  .47033 1.4551 164.6 20.8 1.86 106
2019 03 22 08  11 49 31.182   -15 21 44.47  .47069 1.4555 164.7 20.8 1.90 106
2019 03 22 09  11 49 28.927   -15 19 44.19  .47106 1.4560 164.7 20.8 1.93 106
2019 03 22 10  11 49 26.677   -15 17 44.06  .47142 1.4564 164.7 20.8 1.97 106
2019 03 22 11  11 49 24.432   -15 15 44.07  .47178 1.4568 164.8 20.8 2.00 107
2019 03 22 12  11 49 22.192   -15 13 44.22  .47214 1.4572 164.8 20.8 2.04 107